AAL1724 KRDU-KDCA

Flight info

Callsign AAL1724
Flight time 0h 43m
Altitude 27000
Route BEXGO5 BOUSY WAVES CAPSS4
Aircraft A321/M-SDE3FGHIRWY/LB1

Departure

Time 2026-05-07 00:12
Airport Raleigh-Durham International Airport (KRDU)

Arrival

Time 2026-05-07 00:55
Airport Ronald Reagan Washington National Airport (KDCA)
Time Latitude Longitude Altitude Speed Heading
2026-05-06 23:38 35.87843 -78.79305 392 ft 0 kts 138°
2026-05-06 23:59 35.87853 -78.79316 392 ft 4 kts 129°
2026-05-07 00:00 35.87865 -78.79342 392 ft 4 kts 103°
2026-05-07 00:00 35.87865 -78.79378 392 ft 4 kts 66°
2026-05-07 00:00 35.87858 -78.79394 392 ft 0 kts 47°
2026-05-07 00:03 35.87862 -78.79389 392 ft 2 kts 47°
2026-05-07 00:03 35.87899 -78.79342 392 ft 13 kts 45°
2026-05-07 00:03 35.87975 -78.79248 392 ft 17 kts 45°
2026-05-07 00:03 35.88068 -78.79133 392 ft 21 kts 45°
2026-05-07 00:04 35.88171 -78.79004 391 ft 22 kts 46°
2026-05-07 00:04 35.88279 -78.78868 392 ft 22 kts 45°
2026-05-07 00:04 35.88392 -78.78729 391 ft 23 kts 45°
2026-05-07 00:04 35.88508 -78.78586 392 ft 24 kts 45°
2026-05-07 00:05 35.88627 -78.78439 392 ft 25 kts 45°
2026-05-07 00:05 35.88749 -78.78289 392 ft 25 kts 45°
2026-05-07 00:05 35.88875 -78.78134 392 ft 26 kts 45°
2026-05-07 00:05 35.88988 -78.77961 392 ft 26 kts 65°
2026-05-07 00:06 35.89096 -78.77782 392 ft 26 kts 45°
2026-05-07 00:06 35.89192 -78.77666 392 ft 12 kts 43°
2026-05-07 00:06 35.89240 -78.77659 392 ft 7 kts 327°
2026-05-07 00:06 35.89265 -78.77685 392 ft 0 kts 317°
2026-05-07 00:08 35.89266 -78.77686 392 ft 1 kts 317°
2026-05-07 00:08 35.89301 -78.77728 392 ft 9 kts 315°
2026-05-07 00:08 35.89304 -78.77733 392 ft 0 kts 315°
2026-05-07 00:09 35.89305 -78.77733 392 ft 0 kts 315°
2026-05-07 00:10 35.89305 -78.77734 392 ft 1 kts 315°
2026-05-07 00:10 35.89332 -78.77767 393 ft 9 kts 315°
2026-05-07 00:10 35.89347 -78.77846 392 ft 11 kts 240°
2026-05-07 00:11 35.89338 -78.77859 392 ft 0 kts 227°
2026-05-07 00:11 35.89337 -78.77861 392 ft 4 kts 227°
2026-05-07 00:11 35.89132 -78.78114 391 ft 80 kts 225°
2026-05-07 00:11 35.88576 -78.78802 393 ft 143 kts 225°
2026-05-07 00:12 35.87839 -78.79835 805 ft 158 kts 228°
2026-05-07 00:12 35.87023 -78.80909 1536 ft 156 kts 231°
2026-05-07 00:12 35.86323 -78.81812 2015 ft 161 kts 227°
2026-05-07 00:12 35.85518 -78.82814 2449 ft 171 kts 226°
2026-05-07 00:13 35.84638 -78.83847 2981 ft 180 kts 225°
2026-05-07 00:13 35.83764 -78.85076 3277 ft 204 kts 240°
2026-05-07 00:13 35.83371 -78.86843 3643 ft 226 kts 270°
2026-05-07 00:13 35.83891 -78.88664 4365 ft 238 kts 304°
2026-05-07 00:14 35.85061 -78.90152 5126 ft 246 kts 310°
2026-05-07 00:14 35.86301 -78.91648 5822 ft 253 kts 310°
2026-05-07 00:14 35.87596 -78.93164 6345 ft 263 kts 311°
2026-05-07 00:14 35.88953 -78.94659 6224 ft 259 kts 315°
2026-05-07 00:15 35.90343 -78.96046 6759 ft 258 kts 315°
2026-05-07 00:15 35.91716 -78.97486 7438 ft 262 kts 313°
2026-05-07 00:15 35.93099 -78.98988 7685 ft 264 kts 313°
2026-05-07 00:15 35.94470 -79.00504 7898 ft 265 kts 312°
2026-05-07 00:16 35.95828 -79.02051 7916 ft 264 kts 311°
2026-05-07 00:16 35.97166 -79.03611 7988 ft 265 kts 311°
2026-05-07 00:16 35.98506 -79.05175 7994 ft 266 kts 312°
2026-05-07 00:16 36.00094 -79.06404 8008 ft 278 kts 335°
2026-05-07 00:17 36.02048 -79.06685 7998 ft 293 kts
2026-05-07 00:17 36.03976 -79.05767 8004 ft 307 kts 32°
2026-05-07 00:17 36.05369 -79.03726 8009 ft 317 kts 62°
2026-05-07 00:17 36.06274 -79.01261 8011 ft 319 kts 65°
2026-05-07 00:18 36.07171 -78.98713 8010 ft 319 kts 65°
2026-05-07 00:18 36.08046 -78.96204 8320 ft 318 kts 65°
2026-05-07 00:18 36.08930 -78.93678 8775 ft 322 kts 65°
2026-05-07 00:18 36.09828 -78.91124 9227 ft 325 kts 65°
2026-05-07 00:19 36.10740 -78.88551 9685 ft 328 kts 65°
2026-05-07 00:19 36.11660 -78.85958 10124 ft 333 kts 64°
2026-05-07 00:19 36.12612 -78.83284 10551 ft 345 kts 64°
2026-05-07 00:19 36.13599 -78.80507 10981 ft 358 kts 64°
2026-05-07 00:20 36.14619 -78.77632 11416 ft 370 kts 64°
2026-05-07 00:20 36.15668 -78.74673 11830 ft 382 kts 64°
2026-05-07 00:20 36.16762 -78.71581 11970 ft 401 kts 64°
2026-05-07 00:20 36.17914 -78.68334 11999 ft 424 kts 64°
2026-05-07 00:21 36.19125 -78.64916 11999 ft 444 kts 64°
2026-05-07 00:21 36.20378 -78.61361 12027 ft 453 kts 65°
2026-05-07 00:21 36.21634 -78.57775 12001 ft 455 kts 65°
2026-05-07 00:21 36.22890 -78.54182 12340 ft 456 kts 65°
2026-05-07 00:22 36.24152 -78.50574 12741 ft 458 kts 65°
2026-05-07 00:22 36.25422 -78.46942 13150 ft 460 kts 64°
2026-05-07 00:22 36.26870 -78.43405 13546 ft 460 kts 55°
2026-05-07 00:22 36.28823 -78.40289 13946 ft 458 kts 43°
2026-05-07 00:23 36.31211 -78.37716 14312 ft 453 kts 32°
2026-05-07 00:23 36.33714 -78.35410 14684 ft 455 kts 32°
2026-05-07 00:23 36.36292 -78.33027 15070 ft 458 kts 32°
2026-05-07 00:23 36.38833 -78.30669 15441 ft 461 kts 32°
2026-05-07 00:24 36.41402 -78.28274 15847 ft 463 kts 32°
2026-05-07 00:24 36.43987 -78.25856 16237 ft 467 kts 32°
2026-05-07 00:24 36.46589 -78.23422 16632 ft 469 kts 32°
2026-05-07 00:24 36.49202 -78.20975 17041 ft 472 kts 31°
2026-05-07 00:25 36.51834 -78.18505 17433 ft 475 kts 31°
2026-05-07 00:25 36.54489 -78.16007 17848 ft 479 kts 31°
2026-05-07 00:25 36.57152 -78.13500 18317 ft 482 kts 31°
2026-05-07 00:25 36.58923 -78.11829 18563 ft 484 kts 31°
2026-05-07 00:26 36.62523 -78.08426 19059 ft 487 kts 31°
2026-05-07 00:26 36.65231 -78.05862 19464 ft 491 kts 31°
2026-05-07 00:26 36.67955 -78.03284 19841 ft 494 kts 31°
2026-05-07 00:26 36.70700 -78.00689 20219 ft 497 kts 31°
2026-05-07 00:27 36.73463 -77.98076 20607 ft 499 kts 31°
2026-05-07 00:27 36.75294 -77.96338 20866 ft 501 kts 32°
2026-05-07 00:27 36.78071 -77.93695 21234 ft 503 kts 32°
2026-05-07 00:27 36.80867 -77.91074 21629 ft 502 kts 29°
2026-05-07 00:28 36.83878 -77.88922 22023 ft 496 kts 19°
2026-05-07 00:28 36.86988 -77.87102 22568 ft 493 kts 19°
2026-05-07 00:28 36.90083 -77.85296 23292 ft 487 kts 18°
2026-05-07 00:28 36.93101 -77.83530 24295 ft 470 kts 18°
2026-05-07 00:29 36.96003 -77.81817 25428 ft 451 kts 18°
2026-05-07 00:29 36.98807 -77.80161 26329 ft 441 kts 18°
2026-05-07 00:30 37.07288 -77.75234 26943 ft 462 kts 18°
2026-05-07 00:30 37.10249 -77.73523 26948 ft 475 kts 17°
2026-05-07 00:30 37.13281 -77.71754 26948 ft 486 kts 17°
2026-05-07 00:30 37.16356 -77.69943 26943 ft 489 kts 17°
2026-05-07 00:31 37.19385 -77.68131 26946 ft 471 kts 17°
2026-05-07 00:31 37.22303 -77.66373 26950 ft 462 kts 17°
2026-05-07 00:31 37.25206 -77.64640 26695 ft 463 kts 17°
2026-05-07 00:31 37.28168 -77.62899 26345 ft 476 kts 17°
2026-05-07 00:32 37.31185 -77.61134 26028 ft 478 kts 16°
2026-05-07 00:32 37.34197 -77.59361 25693 ft 478 kts 17°
2026-05-07 00:32 37.37191 -77.57585 25348 ft 474 kts 17°
2026-05-07 00:32 37.40160 -77.55815 25023 ft 471 kts 17°
2026-05-07 00:33 37.43110 -77.54056 24696 ft 467 kts 17°
2026-05-07 00:33 37.46044 -77.52308 24379 ft 464 kts 16°
2026-05-07 00:33 37.48957 -77.50575 24060 ft 461 kts 16°
2026-05-07 00:33 37.51857 -77.48851 23747 ft 458 kts 16°
2026-05-07 00:34 37.54734 -77.47141 23400 ft 457 kts 15°
2026-05-07 00:34 37.57601 -77.45450 22857 ft 451 kts 14°
2026-05-07 00:34 37.60514 -77.44206 22318 ft 434 kts
2026-05-07 00:34 37.63427 -77.43309 21783 ft 429 kts
2026-05-07 00:35 37.66315 -77.42420 21254 ft 425 kts
2026-05-07 00:35 37.69172 -77.41540 20727 ft 421 kts
2026-05-07 00:35 37.72010 -77.40668 20222 ft 418 kts
2026-05-07 00:35 37.74793 -77.39816 19715 ft 415 kts
2026-05-07 00:36 37.77595 -77.38959 19233 ft 413 kts
2026-05-07 00:36 37.80375 -77.38102 18745 ft 410 kts
2026-05-07 00:36 37.83124 -77.37248 18259 ft 401 kts
2026-05-07 00:36 37.85817 -77.36405 17703 ft 387 kts
2026-05-07 00:37 37.88361 -77.35607 17173 ft 377 kts
2026-05-07 00:37 37.90927 -77.34807 16626 ft 373 kts
2026-05-07 00:37 37.93420 -77.34042 16111 ft 372 kts
2026-05-07 00:37 37.95930 -77.33277 15596 ft 371 kts
2026-05-07 00:38 37.98434 -77.32514 15091 ft 369 kts
2026-05-07 00:38 38.00923 -77.31754 14590 ft 367 kts
2026-05-07 00:38 38.03401 -77.30999 14096 ft 365 kts
2026-05-07 00:38 38.05876 -77.30255 13593 ft 364 kts
2026-05-07 00:39 38.08333 -77.29495 13048 ft 363 kts
2026-05-07 00:39 38.10775 -77.28724 12503 ft 361 kts
2026-05-07 00:39 38.13205 -77.27949 11987 ft 360 kts
2026-05-07 00:39 38.15613 -77.27180 11513 ft 351 kts
2026-05-07 00:40 38.17985 -77.26426 11359 ft 351 kts
2026-05-07 00:40 38.20349 -77.25680 11235 ft 350 kts
2026-05-07 00:40 38.22708 -77.24872 11088 ft 351 kts 10°
2026-05-07 00:40 38.25054 -77.23995 10942 ft 351 kts 11°
2026-05-07 00:41 38.27390 -77.23085 10792 ft 351 kts 11°
2026-05-07 00:41 38.29727 -77.22169 10644 ft 350 kts 12°
2026-05-07 00:41 38.32057 -77.21262 10500 ft 349 kts 11°
2026-05-07 00:41 38.34381 -77.20367 10351 ft 349 kts 11°
2026-05-07 00:42 38.36702 -77.19484 10207 ft 347 kts 11°
2026-05-07 00:42 38.39048 -77.18593 10059 ft 347 kts 11°
2026-05-07 00:42 38.41354 -77.17708 9984 ft 346 kts 12°
2026-05-07 00:42 38.43628 -77.16827 9993 ft 335 kts 11°
2026-05-07 00:43 38.45797 -77.15977 9995 ft 319 kts 11°
2026-05-07 00:43 38.47905 -77.15155 9998 ft 315 kts 11°
2026-05-07 00:43 38.49996 -77.14349 10001 ft 314 kts 11°
2026-05-07 00:43 38.52091 -77.13546 9995 ft 314 kts 11°
2026-05-07 00:44 38.54184 -77.12741 9997 ft 314 kts 11°
2026-05-07 00:44 38.56278 -77.11937 10000 ft 314 kts 11°
2026-05-07 00:44 38.58367 -77.11132 9958 ft 316 kts 11°
2026-05-07 00:44 38.60463 -77.10322 9659 ft 311 kts 11°
2026-05-07 00:45 38.62532 -77.09518 9347 ft 310 kts 11°
2026-05-07 00:45 38.64594 -77.08716 9064 ft 309 kts 11°
2026-05-07 00:45 38.66646 -77.07920 8754 ft 307 kts 11°
2026-05-07 00:45 38.68690 -77.07187 8424 ft 302 kts
2026-05-07 00:46 38.70745 -77.06905 8123 ft 295 kts 357°
2026-05-07 00:46 38.72787 -77.06712 7824 ft 292 kts 358°
2026-05-07 00:46 38.74806 -77.06559 7526 ft 287 kts 352°
2026-05-07 00:46 38.76739 -77.06926 7273 ft 277 kts 337°
2026-05-07 00:47 38.78475 -77.07884 6987 ft 268 kts 323°
2026-05-07 00:47 38.80035 -77.09164 6696 ft 265 kts 321°
2026-05-07 00:47 38.81559 -77.10415 6400 ft 254 kts 322°
2026-05-07 00:47 38.83015 -77.11625 6121 ft 243 kts 317°
2026-05-07 00:48 38.84239 -77.13047 6004 ft 236 kts 311°
2026-05-07 00:48 38.85413 -77.14516 6007 ft 235 kts 311°
2026-05-07 00:48 38.86566 -77.15946 5828 ft 228 kts 311°
2026-05-07 00:48 38.87675 -77.17313 5564 ft 213 kts 310°
2026-05-07 00:49 38.88705 -77.18582 5257 ft 197 kts 310°
2026-05-07 00:49 38.89674 -77.19784 4816 ft 193 kts 311°
2026-05-07 00:49 38.90641 -77.20990 4317 ft 194 kts 311°
2026-05-07 00:49 38.91606 -77.22198 3844 ft 193 kts 311°
2026-05-07 00:50 38.92573 -77.23411 3377 ft 191 kts 314°
2026-05-07 00:50 38.93604 -77.24476 2917 ft 191 kts 333°
2026-05-07 00:50 38.94876 -77.24748 2718 ft 181 kts
2026-05-07 00:50 38.96027 -77.24158 2726 ft 179 kts 32°
2026-05-07 00:51 38.96784 -77.22888 2728 ft 183 kts 64°
2026-05-07 00:51 38.96928 -77.21240 2718 ft 190 kts 95°
2026-05-07 00:51 38.96806 -77.19542 2715 ft 192 kts 95°
2026-05-07 00:51 38.96684 -77.17817 2715 ft 191 kts 95°
2026-05-07 00:52 38.96488 -77.16130 2701 ft 192 kts 108°
2026-05-07 00:52 38.95847 -77.14645 2655 ft 192 kts 131°
2026-05-07 00:52 38.94866 -77.13504 2389 ft 190 kts 141°
2026-05-07 00:52 38.93874 -77.12411 2129 ft 187 kts 141°
2026-05-07 00:53 38.92803 -77.11476 1895 ft 186 kts 155°
2026-05-07 00:53 38.91653 -77.10712 1637 ft 181 kts 152°
2026-05-07 00:53 38.90799 -77.09628 1386 ft 170 kts 121°
2026-05-07 00:53 38.90398 -77.08218 1170 ft 168 kts 106°
2026-05-07 00:54 38.89833 -77.06938 967 ft 164 kts 132°
2026-05-07 00:54 38.89067 -77.05876 758 ft 162 kts 134°
2026-05-07 00:54 38.88320 -77.04847 545 ft 155 kts 135°
2026-05-07 00:54 38.87464 -77.04072 323 ft 146 kts 163°
2026-05-07 00:55 38.86462 -77.03928 165 ft 138 kts 177°
2026-05-07 00:55 38.85840 -77.03859 50 ft 126 kts 179°
2026-05-07 00:55 38.85087 -77.03784 25 ft 50 kts 175°
2026-05-07 00:55 38.84922 -77.03780 22 ft 22 kts 207°
2026-05-07 00:56 38.84892 -77.03849 21 ft 0 kts 265°